FALCON HEAVY DEB, 54222

Orbit data source: Space-Track

FALCON HEAVY DEB, 54222 is space debris in GEO originally from a launch on Tue, 01 Nov 2022 UTC launched from the Air Force Eastern Test Range (AFETR). Debris objects in space refer to the collection of defunct objects orbiting the Earth. Examples of debris include non-operational satellites, rocket bodies, and fragments generated from explosions, collisions, or faulty payload assembly.

Loading next visibility...
Identifier
54222, 2022-144D
Orbit
GEO
Last TLE update
2 days ago
Origin
Manufacturer
SpaceX
Mission
Spacecraft
Bus & Motor
Unknown
Mass
~100 kg wet, ~100 kg dry
Launch date (UTC)
2022-11-01 (3 years ago)
Launch vehicle
Unknown
Launch site
Air Force Eastern Test Range (AFETR)
Object type
Payload
Rocket body
Debris
Shape & HBR
Cyl, 3.5 m
Radar Cross Section
7.559 m²

Expand to show TLE details & history

TLE from 2 days ago
0 FALCON HEAVY DEB
1 54222U 22144D   25127.82249749  .00000010  00000-0  00000-0 0  9991
2 54222   4.7015  65.9078 0003753 234.6832 125.1669  0.98852697  7646
Epoch: 2025-05-07T19:44Z
Definitive object data (Epoch: 2025-05-07T19:44:23.783Z)
Latitude
-0.00001°
Longitude
-96.20554°
Altitude
36,197.86 km
Speed
3.059 km/s
True Right ascension
04h 23m 10s
True Declination
0° 00' 00"
Sunlit
Object was in daylight at TLE epoch
Visualization TLE readout
Latitude
-4.68623°
Longitude
176.4176°
Altitude
36,176.9 km
Speed
3.061 km/s
Apparent Right ascension
22h 33m 35s
Apparent Declination
-11° 22' 14"
Sunlit
Object is in daylight
Visualization observer readout
Local Sidereal Time
22:34:22
Azimuth
180.246° SSW
Elevation
38.713°
Doppler factor
1
Orbital elements
Apogee altitude
36,206.195 km
Perigee altitude
36,174.243 km
Semi-major axis
42,568.356 km
Eccentricity
0.0003753
Inclination
4.7015°
RAAN
65.9078°
Arg. of periapsis
234.6832°
True anomaly
125.20205°
Mean anomaly
125.1669°
Eccentric anomaly
125.18447°
Mean motion
0.24712 °/min
BSTAR
Unknown
Orbital period
1456.77 mins
Loading historical data...
54222 neighbors
Loading maneuver chart data...
Loading SW <> Apogee altitude chart data...
Loading historical data...
Loading historical data...
Loading historical data...
Loading historical data...
Loading historical data...
Loading historical data...
Loading historical data...

FALCON HEAVY DEB Visibility forecast

Observer location: undefined°, undefined°

Span
Click to sort rows by Start time (UTC) header in descending order
Start Az.
Max El. time (UTC)
Max El. Az.
Max El.
End time (UTC)
End Az.
1440 mins2025-05-09 14:24:13.485Z180.246° SSW2025-05-10 02:25:13.485Z184.817° SSW37.069°2025-05-10 14:24:13.485Z187.503° SSW
|